Погода в Эннисе

Ирландия     52°50′30″N   8°59′08″W
темп.,
°C
ветер,
м/с
пор.,
м/с
влажн.,
%
обл.,
%
осадки,
мм/ч
давл.,
гПа
погр.,
м
28 февраля, вс
вс2800:00+5ююв129292 0.1 103922
03:00+3юв11937 0.0 103822
06:00+2юв12956 0.0 103823
09:00+4вюв12950 0.0 103794
12:00+8вюв23801 0.0 1037450
15:00+10вюв34680 0.0 1034723
18:00+7вюв23890 0.0 103438
21:00+4юв22950 0.0 103423
1 марта, пн
пн100:00+3вюв22960 0.0 103332
03:00+2вюв12932 0.0 103132
06:00+1в12921 0.0 103027
09:00+4в25890 0.0 1030178
12:00+9юв58760 0.0 1029787
15:00+10вюв46730 0.0 1027980
18:00+7вюв38870 0.0 1027247
21:00+3юв239416 0.0 1027103
2 марта, вт
вт200:00+2юв229623 0.0 102737
03:00+1в12963 0.0 102629
06:00+1в12963 0.0 102628
09:00+4в23923 0.0 1026126
12:00+9вюв35772 0.0 1027440
15:00+12вюв34731 0.0 1026573
18:00+8в23890 0.0 102631
21:00+5вюв12930 0.0 102731
3 марта, ср
ср300:00+4в11940 0.0 102725
03:00+3всв11950 0.0 102722
06:00+2св11950 0.0 102722
09:00+4св12900 0.0 102890
12:00+9всв12760 0.0 1027390
15:00+12св11720 0.0 1027556
18:00+8с12880 0.0 102622
21:00+4ссв22930 0.0 102722
4 марта, чт
чт400:00+4св12941 0.0 102722
03:00+2ссв119531 0.0 102622
06:00+2св119647 0.0 102522
09:00+4св119388 0.0 102591
12:00+9в237879 0.0 1025437
15:00+11вюв236856 0.0 1024770
18:00+7всв238677 0.0 102449
21:00+4в2493100 0.0 102588